Location: Kelshall
(52.0000°N, 0.0500°W)
Time: 22:49:13
(UTC+00:00)

MOS 1 - Pass Details

Date: 18 September 2020
Orbit: 878 x 891 km, 99.1° (Epoch: 21 October)

Event Time Altitude Azimuth Distance (km) Brightness Sun altitude
Exits shadow 19:23:02 - 154° (SSE) 3,038 6.7 -12.3°
Reaches altitude 10° 19:24:17 10° 153° (SSE) 2,554 6.3 -12.5°
Maximum altitude 19:29:57 74° 70° (ENE) 932 4.3 -13.3°
Drops below altitude 10° 19:35:40 10° 347° (NNW) 2,573 7.2 -14.1°
Sets 19:38:05 0° 346° (NNW) 3,517 8.0 -14.5°
